CSN2318 ZGGG-ZUCK

Flight info

Callsign CSN2318
Flight time 1h 37m
Altitude 32100
Route AGVIL W24 OSNOV G586 QP B330 ELKAL W179 SUMUN W3 ASIPO W678 SEGDA
Aircraft A320/M-SDE3GHIJ2J3J5M1RVWXYZ/LB2D1

Departure

Time 2026-05-07 03:31
Airport Guangzhou Baiyun International Airport (ZGGG)

Arrival

Time 2026-05-07 05:08
Airport Chongqing Jiangbei International Airport (ZUCK)
Time Latitude Longitude Altitude Speed Heading
2026-05-07 03:01 23.40087 113.30682 46 ft 0 kts 333°
2026-05-07 03:17 23.40078 113.30687 46 ft 2 kts 334°
2026-05-07 03:17 23.40065 113.30694 46 ft 2 kts 333°
2026-05-07 03:18 23.40051 113.30701 46 ft 2 kts 334°
2026-05-07 03:18 23.40038 113.30708 46 ft 2 kts 333°
2026-05-07 03:18 23.40024 113.30715 45 ft 2 kts 333°
2026-05-07 03:18 23.40011 113.30722 45 ft 2 kts 333°
2026-05-07 03:19 23.39998 113.30730 45 ft 2 kts 334°
2026-05-07 03:19 23.39984 113.30737 45 ft 2 kts 333°
2026-05-07 03:19 23.39970 113.30744 45 ft 2 kts 333°
2026-05-07 03:19 23.39957 113.30751 45 ft 2 kts 334°
2026-05-07 03:20 23.39943 113.30759 45 ft 2 kts 333°
2026-05-07 03:20 23.39937 113.30762 45 ft 0 kts 332°
2026-05-07 03:20 23.39934 113.30765 45 ft 0 kts 271°
2026-05-07 03:20 23.39935 113.30770 45 ft 0 kts 224°
2026-05-07 03:21 23.39938 113.30772 45 ft 0 kts 189°
2026-05-07 03:21 23.39945 113.30773 45 ft 0 kts 191°
2026-05-07 03:23 23.39931 113.30770 45 ft 5 kts 194°
2026-05-07 03:23 23.39864 113.30751 44 ft 11 kts 194°
2026-05-07 03:23 23.39792 113.30732 44 ft 7 kts 187°
2026-05-07 03:23 23.39750 113.30763 44 ft 8 kts 111°
2026-05-07 03:24 23.39734 113.30829 44 ft 9 kts 102°
2026-05-07 03:24 23.39716 113.30893 44 ft 8 kts 128°
2026-05-07 03:24 23.39666 113.30900 44 ft 7 kts 190°
2026-05-07 03:24 23.39602 113.30882 44 ft 12 kts 194°
2026-05-07 03:25 23.39514 113.30859 44 ft 13 kts 194°
2026-05-07 03:25 23.39411 113.30831 42 ft 16 kts 193°
2026-05-07 03:25 23.39288 113.30798 41 ft 18 kts 194°
2026-05-07 03:25 23.39160 113.30763 41 ft 19 kts 194°
2026-05-07 03:26 23.39025 113.30726 41 ft 20 kts 194°
2026-05-07 03:26 23.38885 113.30689 41 ft 20 kts 194°
2026-05-07 03:26 23.38744 113.30650 41 ft 20 kts 194°
2026-05-07 03:26 23.38602 113.30611 40 ft 21 kts 194°
2026-05-07 03:27 23.38451 113.30570 38 ft 22 kts 193°
2026-05-07 03:27 23.38299 113.30530 38 ft 22 kts 195°
2026-05-07 03:27 23.38152 113.30490 38 ft 21 kts 193°
2026-05-07 03:27 23.38011 113.30451 38 ft 20 kts 194°
2026-05-07 03:28 23.37873 113.30414 38 ft 19 kts 194°
2026-05-07 03:28 23.37739 113.30377 38 ft 19 kts 193°
2026-05-07 03:28 23.37649 113.30355 38 ft 6 kts 186°
2026-05-07 03:28 23.37610 113.30386 38 ft 7 kts 111°
2026-05-07 03:29 23.37594 113.30447 38 ft 9 kts 104°
2026-05-07 03:29 23.37580 113.30510 38 ft 4 kts 97°
2026-05-07 03:29 23.37592 113.30537 39 ft 3 kts 32°
2026-05-07 03:29 23.37623 113.30548 39 ft 5 kts 14°
2026-05-07 03:30 23.37796 113.30595 40 ft 58 kts 15°
2026-05-07 03:30 23.38401 113.30757 38 ft 119 kts 15°
2026-05-07 03:30 23.39396 113.31027 45 ft 170 kts 14°
2026-05-07 03:30 23.40631 113.31361 293 ft 189 kts 13°
2026-05-07 03:31 23.41888 113.31677 945 ft 184 kts 15°
2026-05-07 03:31 23.43127 113.32047 1589 ft 183 kts 17°
2026-05-07 03:31 23.44324 113.32421 2178 ft 178 kts 17°
2026-05-07 03:31 23.45548 113.32793 2554 ft 189 kts 16°
2026-05-07 03:32 23.46879 113.33190 2856 ft 205 kts 16°
2026-05-07 03:32 23.48306 113.33616 3161 ft 221 kts 16°
2026-05-07 03:32 23.49868 113.34083 3393 ft 245 kts 15°
2026-05-07 03:32 23.51557 113.34587 3939 ft 256 kts 15°
2026-05-07 03:33 23.53272 113.35100 4662 ft 259 kts 14°
2026-05-07 03:33 23.55009 113.35619 5403 ft 262 kts 13°
2026-05-07 03:33 23.56798 113.36040 6141 ft 265 kts
2026-05-07 03:33 23.58602 113.36385 6904 ft 267 kts
2026-05-07 03:34 23.60453 113.36731 7657 ft 270 kts
2026-05-07 03:34 23.62304 113.37077 8395 ft 273 kts
2026-05-07 03:34 23.64176 113.37430 9078 ft 278 kts
2026-05-07 03:34 23.66128 113.37798 9494 ft 294 kts
2026-05-07 03:35 23.68187 113.38187 10040 ft 303 kts
2026-05-07 03:35 23.70303 113.38591 10574 ft 314 kts
2026-05-07 03:35 23.72515 113.39012 10897 ft 331 kts
2026-05-07 03:35 23.74824 113.39454 11184 ft 348 kts
2026-05-07 03:36 23.77272 113.39922 11470 ft 365 kts
2026-05-07 03:36 23.79839 113.40160 11740 ft 376 kts 351°
2026-05-07 03:36 23.82334 113.39326 12252 ft 374 kts 328°
2026-05-07 03:36 23.84330 113.37567 12901 ft 370 kts 307°
2026-05-07 03:37 23.85603 113.35171 13483 ft 369 kts 287°
2026-05-07 03:37 23.86058 113.32437 14077 ft 369 kts 274°
2026-05-07 03:37 23.86283 113.29624 14625 ft 373 kts 274°
2026-05-07 03:37 23.86525 113.26799 15152 ft 377 kts 275°
2026-05-07 03:38 23.86778 113.23932 15687 ft 380 kts 275°
2026-05-07 03:38 23.87032 113.21097 16220 ft 383 kts 275°
2026-05-07 03:38 23.87293 113.18194 16734 ft 386 kts 275°
2026-05-07 03:38 23.87556 113.15276 17235 ft 389 kts 275°
2026-05-07 03:39 23.87824 113.12317 17740 ft 391 kts 275°
2026-05-07 03:39 23.88090 113.09366 18233 ft 394 kts 275°
2026-05-07 03:39 23.88359 113.06384 18715 ft 396 kts 275°
2026-05-07 03:39 23.88627 113.03394 19161 ft 399 kts 275°
2026-05-07 03:40 23.88911 113.00414 19616 ft 401 kts 278°
2026-05-07 03:40 23.89723 112.97472 20014 ft 406 kts 295°
2026-05-07 03:40 23.91313 112.94940 20485 ft 410 kts 311°
2026-05-07 03:40 23.93558 112.92966 20889 ft 417 kts 327°
2026-05-07 03:41 23.96258 112.91760 21301 ft 424 kts 340°
2026-05-07 03:41 23.99076 112.90841 21678 ft 427 kts 340°
2026-05-07 03:41 24.01958 112.89915 22016 ft 431 kts 340°
2026-05-07 03:41 24.04862 112.88972 22388 ft 434 kts 340°
2026-05-07 03:42 24.07751 112.88026 22797 ft 435 kts 340°
2026-05-07 03:42 24.10642 112.87068 23211 ft 437 kts 340°
2026-05-07 03:42 24.13562 112.86102 23638 ft 437 kts 340°
2026-05-07 03:42 24.16501 112.85130 24047 ft 439 kts 340°
2026-05-07 03:43 24.19432 112.84157 24435 ft 440 kts 339°
2026-05-07 03:43 24.22338 112.83193 24821 ft 441 kts 340°
2026-05-07 03:43 24.25318 112.82204 25198 ft 442 kts 339°
2026-05-07 03:43 24.28242 112.81228 25531 ft 444 kts 340°
2026-05-07 03:44 24.31197 112.80245 25862 ft 446 kts 339°
2026-05-07 03:44 24.34165 112.79255 26210 ft 447 kts 340°
2026-05-07 03:44 24.37148 112.78260 26536 ft 448 kts 340°
2026-05-07 03:44 24.40168 112.77253 26833 ft 449 kts 340°
2026-05-07 03:45 24.43132 112.76193 27113 ft 448 kts 334°
2026-05-07 03:45 24.45771 112.74448 27337 ft 444 kts 317°
2026-05-07 03:45 24.47838 112.71973 27633 ft 440 kts 303°
2026-05-07 03:45 24.49210 112.69012 27892 ft 439 kts 289°
2026-05-07 03:46 24.49832 112.65714 28176 ft 440 kts 277°
2026-05-07 03:46 24.50147 112.62408 28524 ft 439 kts 277°
2026-05-07 03:46 24.50468 112.59092 28826 ft 439 kts 277°
2026-05-07 03:46 24.50795 112.55744 29142 ft 439 kts 277°
2026-05-07 03:47 24.51116 112.52464 29474 ft 438 kts 277°
2026-05-07 03:47 24.51438 112.49153 29816 ft 437 kts 277°
2026-05-07 03:47 24.51762 112.45828 30130 ft 437 kts 277°
2026-05-07 03:47 24.52082 112.42512 30453 ft 436 kts 277°
2026-05-07 03:48 24.52402 112.39211 30713 ft 437 kts 277°
2026-05-07 03:48 24.52720 112.35908 30950 ft 438 kts 277°
2026-05-07 03:48 24.53040 112.32561 31190 ft 439 kts 277°
2026-05-07 03:48 24.53356 112.29247 31444 ft 440 kts 277°
2026-05-07 03:49 24.53672 112.25925 31649 ft 441 kts 277°
2026-05-07 03:49 24.53990 112.22569 31878 ft 442 kts 277°
2026-05-07 03:49 24.54310 112.19212 32059 ft 444 kts 277°
2026-05-07 03:50 24.54951 112.12441 32105 ft 445 kts 277°
2026-05-07 03:50 24.55588 112.05685 32118 ft 447 kts 277°
2026-05-07 03:51 24.56222 111.98925 32127 ft 447 kts 277°
2026-05-07 03:51 24.56853 111.92169 32130 ft 446 kts 277°
2026-05-07 03:52 24.57485 111.85372 32126 ft 447 kts 277°
2026-05-07 03:52 24.58110 111.78604 32121 ft 446 kts 277°
2026-05-07 03:53 24.58733 111.71858 32113 ft 445 kts 277°
2026-05-07 03:53 24.59350 111.65105 32100 ft 445 kts 277°
2026-05-07 03:54 24.59968 111.58330 32090 ft 446 kts 277°
2026-05-07 03:54 24.60584 111.51551 32074 ft 446 kts 277°
2026-05-07 03:55 24.61194 111.44797 32068 ft 446 kts 277°
2026-05-07 03:55 24.61803 111.38032 32065 ft 445 kts 277°
2026-05-07 03:56 24.62402 111.31300 32063 ft 445 kts 277°
2026-05-07 03:56 24.62989 111.24554 32060 ft 445 kts 276°
2026-05-07 03:57 24.63570 111.17792 32065 ft 445 kts 276°
2026-05-07 03:57 24.64149 111.11061 32065 ft 444 kts 276°
2026-05-07 03:58 24.64727 111.04320 32071 ft 443 kts 276°
2026-05-07 03:58 24.65301 110.97601 32076 ft 444 kts 276°
2026-05-07 03:59 24.65875 110.90823 32072 ft 444 kts 276°
2026-05-07 03:59 24.66902 110.84168 32067 ft 443 kts 286°
2026-05-07 04:00 24.69130 110.77913 32063 ft 443 kts 297°
2026-05-07 04:00 24.72501 110.72246 32060 ft 444 kts 308°
2026-05-07 04:01 24.76796 110.67328 32056 ft 445 kts 314°
2026-05-07 04:01 24.81279 110.62614 32058 ft 446 kts 314°
2026-05-07 04:02 24.85737 110.57928 32063 ft 445 kts 314°
2026-05-07 04:02 24.90208 110.53217 32065 ft 444 kts 314°
2026-05-07 04:03 24.94681 110.48492 32069 ft 445 kts 314°
2026-05-07 04:03 24.99129 110.43792 32068 ft 445 kts 314°
2026-05-07 04:04 25.03603 110.39064 32063 ft 445 kts 314°
2026-05-07 04:04 25.08060 110.34358 32058 ft 445 kts 314°
2026-05-07 04:05 25.12530 110.29622 32049 ft 446 kts 314°
2026-05-07 04:05 25.16998 110.24906 32044 ft 446 kts 314°
2026-05-07 04:06 25.21497 110.20148 32041 ft 447 kts 314°
2026-05-07 04:06 25.26005 110.15431 32039 ft 447 kts 314°
2026-05-07 04:07 25.30522 110.10709 32038 ft 448 kts 314°
2026-05-07 04:07 25.35055 110.05957 32041 ft 450 kts 314°
2026-05-07 04:08 25.39588 110.01199 32045 ft 451 kts 314°
2026-05-07 04:08 25.44150 109.96404 32052 ft 451 kts 314°
2026-05-07 04:09 25.48684 109.91633 32066 ft 451 kts 314°
2026-05-07 04:09 25.53209 109.86865 32076 ft 451 kts 314°
2026-05-07 04:10 25.57775 109.82050 32079 ft 452 kts 314°
2026-05-07 04:10 25.62323 109.77247 32082 ft 454 kts 314°
2026-05-07 04:11 25.66880 109.72427 32080 ft 453 kts 314°
2026-05-07 04:11 25.71401 109.67536 32075 ft 453 kts 311°
2026-05-07 04:12 25.75305 109.62106 32071 ft 450 kts 302°
2026-05-07 04:12 25.78394 109.56114 32067 ft 448 kts 294°
2026-05-07 04:13 25.80620 109.49688 32069 ft 446 kts 287°
2026-05-07 04:13 25.82366 109.43125 32073 ft 445 kts 286°
2026-05-07 04:14 25.84094 109.36535 32074 ft 445 kts 285°
2026-05-07 04:14 25.85817 109.29941 32077 ft 445 kts 285°
2026-05-07 04:15 25.87539 109.23354 32079 ft 444 kts 285°
2026-05-07 04:15 25.89254 109.16794 32081 ft 444 kts 285°
2026-05-07 04:16 25.90971 109.10228 32079 ft 443 kts 285°
2026-05-07 04:16 25.92682 109.03669 32080 ft 443 kts 285°
2026-05-07 04:17 25.94419 108.97124 32082 ft 443 kts 285°
2026-05-07 04:17 25.96158 108.90588 32085 ft 442 kts 286°
2026-05-07 04:18 25.97895 108.84051 32095 ft 442 kts 286°
2026-05-07 04:18 25.99622 108.77537 32103 ft 442 kts 285°
2026-05-07 04:19 26.01356 108.70978 32104 ft 442 kts 285°
2026-05-07 04:19 26.03083 108.64481 32111 ft 442 kts 285°
2026-05-07 04:20 26.04821 108.57941 32112 ft 441 kts 286°
2026-05-07 04:20 26.06554 108.51415 32111 ft 440 kts 286°
2026-05-07 04:21 26.09214 108.41703 32116 ft 440 kts 289°
2026-05-07 04:21 26.11536 108.35416 32128 ft 440 kts 294°
2026-05-07 04:22 26.14209 108.29245 32142 ft 440 kts 294°
2026-05-07 04:22 26.16856 108.23142 32161 ft 439 kts 294°
2026-05-07 04:23 26.19494 108.17039 32169 ft 440 kts 294°
2026-05-07 04:23 26.22148 108.10891 32168 ft 439 kts 294°
2026-05-07 04:24 26.24769 108.04806 32168 ft 439 kts 294°
2026-05-07 04:24 26.27401 107.98690 32164 ft 438 kts 294°
2026-05-07 04:25 26.30044 107.92537 32165 ft 438 kts 294°
2026-05-07 04:25 26.32656 107.86446 32166 ft 438 kts 294°
2026-05-07 04:26 26.35265 107.80351 32161 ft 438 kts 294°
2026-05-07 04:26 26.37880 107.74235 32163 ft 437 kts 294°
2026-05-07 04:27 26.40492 107.68118 32165 ft 437 kts 294°
2026-05-07 04:27 26.43088 107.62028 32173 ft 437 kts 294°
2026-05-07 04:28 26.45693 107.55905 32180 ft 437 kts 294°
2026-05-07 04:28 26.48285 107.49807 32083 ft 438 kts 294°
2026-05-07 04:29 26.49591 107.46725 31824 ft 437 kts 294°
2026-05-07 04:29 26.50887 107.43665 31575 ft 438 kts 294°
2026-05-07 04:29 26.52180 107.40608 31321 ft 439 kts 294°
2026-05-07 04:29 26.53494 107.37495 31067 ft 440 kts 294°
2026-05-07 04:30 26.54794 107.34419 30818 ft 441 kts 294°
2026-05-07 04:30 26.56102 107.31320 30568 ft 442 kts 294°
2026-05-07 04:30 26.57399 107.28246 30317 ft 442 kts 294°
2026-05-07 04:30 26.58712 107.25140 30066 ft 443 kts 293°
2026-05-07 04:31 26.60026 107.22029 29812 ft 444 kts 294°
2026-05-07 04:31 26.61343 107.18908 29558 ft 444 kts 294°
2026-05-07 04:31 26.62666 107.15771 29301 ft 445 kts 294°
2026-05-07 04:31 26.63976 107.12673 29054 ft 446 kts 294°
2026-05-07 04:32 26.65311 107.09534 28800 ft 444 kts 294°
2026-05-07 04:32 26.66614 107.06469 28554 ft 442 kts 294°
2026-05-07 04:32 26.67943 107.03344 28310 ft 439 kts 294°
2026-05-07 04:32 26.69249 107.00269 28067 ft 438 kts 294°
2026-05-07 04:33 26.70536 106.97237 27830 ft 438 kts 294°
2026-05-07 04:33 26.71838 106.94164 27588 ft 436 kts 294°
2026-05-07 04:33 26.73139 106.91091 27346 ft 434 kts 294°
2026-05-07 04:33 26.74424 106.88055 27106 ft 433 kts 294°
2026-05-07 04:34 26.75703 106.85027 26864 ft 433 kts 294°
2026-05-07 04:34 26.77218 106.82132 26602 ft 435 kts 306°
2026-05-07 04:34 26.79434 106.79823 26365 ft 440 kts 322°
2026-05-07 04:34 26.82202 106.78279 26122 ft 448 kts 338°
2026-05-07 04:35 26.85270 106.77663 25889 ft 455 kts 352°
2026-05-07 04:35 26.88441 106.77492 25650 ft 454 kts 353°
2026-05-07 04:35 26.91607 106.77338 25364 ft 453 kts 353°
2026-05-07 04:35 26.94746 106.77186 25051 ft 451 kts 353°
2026-05-07 04:36 26.97873 106.77030 24739 ft 450 kts 353°
2026-05-07 04:36 27.00993 106.76872 24426 ft 449 kts 353°
2026-05-07 04:36 27.04111 106.76712 24114 ft 448 kts 353°
2026-05-07 04:36 27.07252 106.76549 23832 ft 446 kts 353°
2026-05-07 04:37 27.10354 106.76389 23593 ft 444 kts 353°
2026-05-07 04:37 27.13422 106.76232 23391 ft 443 kts 353°
2026-05-07 04:37 27.16516 106.76072 23227 ft 443 kts 353°
2026-05-07 04:37 27.19574 106.75914 23061 ft 442 kts 354°
2026-05-07 04:38 27.22661 106.75754 22894 ft 442 kts 354°
2026-05-07 04:38 27.25753 106.75592 22730 ft 441 kts 354°
2026-05-07 04:38 27.28807 106.75433 22568 ft 440 kts 354°
2026-05-07 04:38 27.31851 106.75275 22404 ft 439 kts 354°
2026-05-07 04:39 27.34925 106.75115 22240 ft 438 kts 354°
2026-05-07 04:39 27.37980 106.75015 22078 ft 438 kts 356°
2026-05-07 04:39 27.41009 106.75004 21921 ft 437 kts 356°
2026-05-07 04:39 27.44071 106.75008 21762 ft 437 kts 356°
2026-05-07 04:40 27.47092 106.75014 21601 ft 437 kts 356°
2026-05-07 04:40 27.50129 106.75019 21443 ft 436 kts 357°
2026-05-07 04:40 27.53156 106.75025 21282 ft 435 kts 356°
2026-05-07 04:40 27.56218 106.75030 21050 ft 433 kts 356°
2026-05-07 04:41 27.59207 106.75034 20827 ft 432 kts 356°
2026-05-07 04:41 27.62199 106.75037 20601 ft 431 kts 357°
2026-05-07 04:41 27.65207 106.75041 20375 ft 430 kts 356°
2026-05-07 04:41 27.68197 106.75045 20147 ft 428 kts 356°
2026-05-07 04:42 27.71153 106.75047 19923 ft 426 kts 357°
2026-05-07 04:42 27.74143 106.75049 19697 ft 425 kts 357°
2026-05-07 04:42 27.77102 106.75052 19469 ft 424 kts 356°
2026-05-07 04:42 27.80040 106.75054 19242 ft 422 kts 357°
2026-05-07 04:43 27.82966 106.75056 19017 ft 421 kts 357°
2026-05-07 04:43 27.85918 106.75058 18789 ft 420 kts 357°
2026-05-07 04:43 27.88831 106.75061 18560 ft 418 kts 357°
2026-05-07 04:43 27.91733 106.75062 18334 ft 417 kts 357°
2026-05-07 04:44 27.94621 106.75065 18107 ft 416 kts 357°
2026-05-07 04:44 27.97507 106.75067 17880 ft 415 kts 357°
2026-05-07 04:44 28.00427 106.75067 17645 ft 414 kts 357°
2026-05-07 04:44 28.03297 106.75068 17423 ft 412 kts 356°
2026-05-07 04:45 28.06147 106.75067 17203 ft 411 kts 356°
2026-05-07 04:45 28.09029 106.75067 16980 ft 410 kts 356°
2026-05-07 04:45 28.11870 106.75068 16757 ft 409 kts 357°
2026-05-07 04:45 28.14721 106.75069 16534 ft 407 kts 357°
2026-05-07 04:46 28.17529 106.75069 16314 ft 406 kts 357°
2026-05-07 04:46 28.20356 106.75074 16093 ft 404 kts 357°
2026-05-07 04:46 28.23172 106.75081 15873 ft 403 kts 357°
2026-05-07 04:46 28.25957 106.75087 15649 ft 401 kts 358°
2026-05-07 04:47 28.28779 106.75093 15409 ft 399 kts 357°
2026-05-07 04:47 28.31525 106.75028 15176 ft 397 kts 354°
2026-05-07 04:47 28.34296 106.74767 14939 ft 394 kts 351°
2026-05-07 04:47 28.37011 106.74387 14703 ft 393 kts 350°
2026-05-07 04:48 28.39708 106.73985 14465 ft 391 kts 350°
2026-05-07 04:48 28.42404 106.73579 14233 ft 390 kts 350°
2026-05-07 04:48 28.45076 106.73179 13994 ft 388 kts 350°
2026-05-07 04:48 28.47754 106.72781 13759 ft 386 kts 350°
2026-05-07 04:49 28.50432 106.72382 13552 ft 385 kts 350°
2026-05-07 04:49 28.53082 106.71989 13360 ft 384 kts 350°
2026-05-07 04:49 28.55711 106.71599 13110 ft 381 kts 351°
2026-05-07 04:49 28.58358 106.71204 12862 ft 380 kts 351°
2026-05-07 04:50 28.60982 106.70814 12606 ft 378 kts 351°
2026-05-07 04:50 28.63563 106.70432 12321 ft 377 kts 351°
2026-05-07 04:50 28.66165 106.70046 11963 ft 374 kts 352°
2026-05-07 04:50 28.68742 106.69671 11619 ft 371 kts 353°
2026-05-07 04:51 28.71284 106.69399 11268 ft 368 kts 355°
2026-05-07 04:51 28.73841 106.69252 10917 ft 366 kts 358°
2026-05-07 04:51 28.76410 106.69216 10568 ft 362 kts 360°
2026-05-07 04:51 28.78881 106.69211 10242 ft 353 kts
2026-05-07 04:52 28.81302 106.69211 9911 ft 344 kts
2026-05-07 04:52 28.83670 106.69211 9574 ft 336 kts
2026-05-07 04:52 28.85992 106.69212 9247 ft 329 kts
2026-05-07 04:52 28.88243 106.69215 8966 ft 321 kts
2026-05-07 04:53 28.90428 106.69216 8884 ft 306 kts
2026-05-07 04:53 28.92529 106.69215 8832 ft 291 kts
2026-05-07 04:53 28.94497 106.69212 8710 ft 281 kts
2026-05-07 04:53 28.96455 106.69209 8594 ft 280 kts
2026-05-07 04:54 28.98424 106.69206 8483 ft 279 kts
2026-05-07 04:54 29.00363 106.69204 8371 ft 279 kts
2026-05-07 04:54 29.02313 106.69193 8248 ft 278 kts 358°
2026-05-07 04:54 29.04209 106.68780 8116 ft 277 kts 342°
2026-05-07 04:55 29.06027 106.68028 7992 ft 276 kts 340°
2026-05-07 04:55 29.07811 106.67251 7864 ft 275 kts 340°
2026-05-07 04:55 29.09604 106.66492 7743 ft 274 kts 340°
2026-05-07 04:55 29.11397 106.65760 7624 ft 273 kts 341°
2026-05-07 04:56 29.13209 106.65041 7498 ft 272 kts 341°
2026-05-07 04:56 29.14996 106.64341 7376 ft 271 kts 341°
2026-05-07 04:56 29.16780 106.63647 7249 ft 271 kts 341°
2026-05-07 04:56 29.18585 106.62947 7121 ft 271 kts 341°
2026-05-07 04:57 29.20344 106.62264 6961 ft 267 kts 342°
2026-05-07 04:57 29.22079 106.61591 6814 ft 257 kts 342°
2026-05-07 04:57 29.23745 106.60944 6691 ft 246 kts 342°
2026-05-07 04:57 29.25340 106.60326 6568 ft 236 kts 342°
2026-05-07 04:58 29.26864 106.59733 6444 ft 227 kts 342°
2026-05-07 04:58 29.28332 106.59164 6311 ft 218 kts 342°
2026-05-07 04:58 29.29742 106.58619 6183 ft 209 kts 342°
2026-05-07 04:58 29.31096 106.58093 6049 ft 200 kts 342°
2026-05-07 04:59 29.32385 106.57592 5920 ft 192 kts 342°
2026-05-07 04:59 29.33634 106.57107 5832 ft 186 kts 342°
2026-05-07 04:59 29.34852 106.56634 5767 ft 186 kts 342°
2026-05-07 04:59 29.36073 106.56160 5691 ft 185 kts 342°
2026-05-07 05:00 29.37299 106.55685 5608 ft 186 kts 343°
2026-05-07 05:00 29.38565 106.55428 5502 ft 185 kts
2026-05-07 05:00 29.39846 106.55682 5389 ft 185 kts 15°
2026-05-07 05:00 29.41079 106.56091 5281 ft 185 kts 10°
2026-05-07 05:01 29.42356 106.56374 5182 ft 185 kts 10°
2026-05-07 05:01 29.43613 106.56671 5085 ft 185 kts 12°
2026-05-07 05:01 29.44866 106.57011 4989 ft 185 kts 13°
2026-05-07 05:01 29.46117 106.57381 4961 ft 184 kts 14°
2026-05-07 05:02 29.47345 106.57767 4947 ft 184 kts 14°
2026-05-07 05:02 29.48592 106.58176 4948 ft 184 kts 15°
2026-05-07 05:02 29.49832 106.58596 4944 ft 185 kts 16°
2026-05-07 05:02 29.51061 106.59020 4943 ft 181 kts 16°
2026-05-07 05:03 29.52217 106.59424 4920 ft 166 kts 17°
2026-05-07 05:03 29.53313 106.59809 4842 ft 164 kts 17°
2026-05-07 05:03 29.54395 106.60190 4740 ft 163 kts 17°
2026-05-07 05:03 29.55474 106.60570 4501 ft 157 kts 17°
2026-05-07 05:04 29.56477 106.60922 4267 ft 147 kts 17°
2026-05-07 05:04 29.57438 106.61260 4061 ft 142 kts 17°
2026-05-07 05:04 29.58378 106.61591 3922 ft 143 kts 17°
2026-05-07 05:04 29.59324 106.61923 3726 ft 142 kts 17°
2026-05-07 05:05 29.60269 106.62254 3536 ft 142 kts 17°
2026-05-07 05:05 29.61217 106.62585 3352 ft 142 kts 16°
2026-05-07 05:05 29.62167 106.62917 3169 ft 142 kts 16°
2026-05-07 05:05 29.63119 106.63249 2988 ft 143 kts 16°
2026-05-07 05:06 29.64076 106.63583 2807 ft 143 kts 17°
2026-05-07 05:06 29.65042 106.63920 2629 ft 144 kts 16°
2026-05-07 05:06 29.66008 106.64240 2447 ft 145 kts 18°
2026-05-07 05:06 29.66973 106.64580 2274 ft 145 kts 19°
2026-05-07 05:07 29.67936 106.64956 2072 ft 147 kts 19°
2026-05-07 05:07 29.68920 106.65299 1875 ft 148 kts 17°
2026-05-07 05:07 29.69916 106.65619 1689 ft 149 kts 17°
2026-05-07 05:07 29.70915 106.65963 1513 ft 149 kts 18°
2026-05-07 05:08 29.71888 106.66303 1377 ft 143 kts 18°
2026-05-07 05:08 29.72733 106.66598 1373 ft 103 kts 17°
2026-05-07 05:08 29.73254 106.66778 1374 ft 53 kts 17°
2026-05-07 05:08 29.73468 106.66848 1374 ft 25 kts 11°
2026-05-07 05:09 29.73641 106.66853 1374 ft 25 kts 353°
2026-05-07 05:09 29.73739 106.66830 1374 ft 8 kts 331°
2026-05-07 05:09 29.73758 106.66761 1374 ft 10 kts 249°
2026-05-07 05:09 29.73692 106.66722 1374 ft 12 kts 196°
2026-05-07 05:10 29.73606 106.66694 1374 ft 12 kts 196°
2026-05-07 05:10 29.73534 106.66666 1374 ft 7 kts 206°
2026-05-07 05:10 29.73509 106.66613 1374 ft 9 kts 279°
2026-05-07 05:10 29.73542 106.66541 1374 ft 9 kts 295°
2026-05-07 05:11 29.73535 106.66475 1374 ft 9 kts 219°
2026-05-07 05:11 29.73471 106.66449 1373 ft 7 kts 196°
2026-05-07 05:11 29.73438 106.66435 1373 ft 3 kts 223°
2026-05-07 05:11 29.73431 106.66402 1373 ft 5 kts 257°
2026-05-07 05:12 29.73422 106.66359 1373 ft 5 kts 257°
2026-05-07 05:12 29.73414 106.66318 1373 ft 0 kts 257°
2026-05-07 05:12 29.73413 106.66309 1373 ft 1 kts 257°
2026-05-07 05:12 29.73412 106.66307 1373 ft 0 kts 257°